• In France
  • List of Countries
  • For 7 days
  • Water Temperature
  • Satellite Maps
  • Weather Map
  • Weather Widgets
  • user-avatar
    Login

    Hourly Weather Santa Fe

    Today, 17 January, Wednesday

    Time Temperature Precipitation Wind Pressure Humidity
    00:00 +28°C° 0 mm 3 mps 757 mmHg 54%
    01:00 +27°C° 0 mm 2 mps 757 mmHg 57%
    02:00 +26°C° 0 mm 2 mps 757 mmHg 60%
    03:00 +26°C° 0 mm 2 mps 757 mmHg 62%
    04:00 +25°C° 0 mm 2 mps 757 mmHg 64%
    05:00 +25°C° 0 mm 2 mps 757 mmHg 66%
    06:00 +27°C° 0 mm 2 mps 757 mmHg 61%
    07:00 +29°C° 0 mm 2 mps 757 mmHg 55%
    08:00 +31°C° 0 mm 2 mps 758 mmHg 49%
    09:00 +34°C° 0 mm 2 mps 757 mmHg 45%
    10:00 +35°C° 0 mm 2 mps 757 mmHg 40%
    11:00 +36°C° 0 mm 1 mps 757 mmHg 36%
    12:00 +36°C° 0.3 mm 2 mps 757 mmHg 40%
    13:00 +35°C° 0.3 mm 2 mps 756 mmHg 44%
    14:00 +34°C° 0.3 mm 2 mps 756 mmHg 47%
    15:00 +31°C° 1.4 mm 3 mps 756 mmHg 53%
    16:00 +30°C° 1.4 mm 4 mps 756 mmHg 60%
    17:00 +29°C° 1.4 mm 5 mps 755 mmHg 66%
    18:00 +28°C° 0.2 mm 4 mps 756 mmHg 69%
    19:00 +27°C° 0.2 mm 4 mps 756 mmHg 73%
    20:00 +26°C° 0.2 mm 3 mps 756 mmHg 77%
    21:00 +25°C° 0 mm 3 mps 757 mmHg 78%
    22:00 +25°C° 0 mm 2 mps 757 mmHg 80%
    23:00 +24°C° 0 mm 2 mps 758 mmHg 81%

    Tomorrow, 18 January, Thursday

    Time Temperature Precipitation Wind Pressure Humidity
    00:00 +24°C° 0 mm 2 mps 757 mmHg 82%
    01:00 +23°C° 0 mm 2 mps 757 mmHg 83%
    02:00 +23°C° 0 mm 2 mps 757 mmHg 84%
    03:00 +23°C° 0 mm 2 mps 757 mmHg 85%
    04:00 +23°C° 0 mm 2 mps 757 mmHg 85%
    05:00 +22°C° 0 mm 1 mps 757 mmHg 86%
    06:00 +24°C° 0 mm 2 mps 757 mmHg 78%
    07:00 +26°C° 0 mm 2 mps 758 mmHg 71%
    08:00 +28°C° 0 mm 3 mps 758 mmHg 63%
    09:00 +31°C° 0 mm 3 mps 758 mmHg 53%
    10:00 +34°C° 0 mm 3 mps 758 mmHg 43%
    11:00 +36°C° 0 mm 3 mps 758 mmHg 33%
    12:00 +37°C° 0 mm 3 mps 757 mmHg 30%
    13:00 +38°C° 0 mm 3 mps 757 mmHg 27%
    14:00 +39°C° 0 mm 3 mps 756 mmHg 23%
    15:00 +39°C° 0 mm 3 mps 756 mmHg 22%
    16:00 +39°C° 0 mm 3 mps 755 mmHg 22%
    17:00 +39°C° 0 mm 3 mps 755 mmHg 21%
    18:00 +37°C° 0 mm 3 mps 755 mmHg 25%
    19:00 +34°C° 0 mm 3 mps 755 mmHg 30%
    20:00 +31°C° 0 mm 3 mps 756 mmHg 34%
    21:00 +30°C° 0 mm 3 mps 756 mmHg 36%
    22:00 +29°C° 0 mm 2 mps 757 mmHg 37%
    23:00 +28°C° 0 mm 2 mps 757 mmHg 39%

    Day after tomorrow, 19 January, Friday

    Time Temperature Precipitation Wind Pressure Humidity
    00:00 +28°C° 0 mm 2 mps 757 mmHg 41%
    01:00 +27°C° 0 mm 2 mps 757 mmHg 42%
    02:00 +27°C° 0 mm 2 mps 757 mmHg 44%
    03:00 +26°C° 0 mm 2 mps 757 mmHg 47%
    04:00 +26°C° 0 mm 2 mps 757 mmHg 49%
    05:00 +26°C° 0 mm 3 mps 757 mmHg 52%
    06:00 +28°C° 0 mm 3 mps 758 mmHg 47%
    07:00 +31°C° 0 mm 3 mps 758 mmHg 43%
    08:00 +34°C° 0 mm 4 mps 758 mmHg 39%
    09:00 +36°C° 0 mm 3 mps 758 mmHg 32%
    10:00 +38°C° 0 mm 3 mps 758 mmHg 26%
    11:00 +40°C° 0 mm 3 mps 758 mmHg 19%
    12:00 +42°C° 0 mm 3 mps 757 mmHg 18%
    13:00 +43°C° 0 mm 3 mps 757 mmHg 16%
    14:00 +43°C° 0 mm 3 mps 756 mmHg 15%
    15:00 +43°C° 0 mm 3 mps 755 mmHg 15%
    16:00 +42°C° 0 mm 3 mps 755 mmHg 16%
    17:00 +40°C° 0 mm 3 mps 754 mmHg 17%
    18:00 +38°C° 0 mm 3 mps 755 mmHg 20%
    19:00 +36°C° 0 mm 3 mps 755 mmHg 22%
    20:00 +34°C° 0 mm 3 mps 755 mmHg 25%
    21:00 +34°C° 0 mm 4 mps 755 mmHg 25%
    22:00 +33°C° 0 mm 4 mps 756 mmHg 26%
    23:00 +32°C° 0 mm 4 mps 756 mmHg 27%

    20 January, Saturday

    Time Temperature Precipitation Wind Pressure Humidity
    00:00 +32°C° 0 mm 4 mps 756 mmHg 27%
    01:00 +30°C° 0 mm 5 mps 755 mmHg 28%
    02:00 +30°C° 0 mm 5 mps 755 mmHg 28%
    03:00 +29°C° 0 mm 4 mps 755 mmHg 32%
    04:00 +28°C° 0 mm 4 mps 755 mmHg 36%
    05:00 +28°C° 0 mm 4 mps 756 mmHg 40%
    06:00 +30°C° 0 mm 4 mps 756 mmHg 38%
    07:00 +32°C° 0 mm 5 mps 756 mmHg 36%
    08:00 +34°C° 0 mm 5 mps 756 mmHg 35%
    09:00 +36°C° 0 mm 5 mps 756 mmHg 29%
    10:00 +39°C° 0 mm 5 mps 756 mmHg 23%
    11:00 +41°C° 0 mm 5 mps 755 mmHg 18%
    12:00 +42°C° 0 mm 5 mps 755 mmHg 16%
    13:00 +44°C° 0 mm 6 mps 754 mmHg 14%
    14:00 +44°C° 0 mm 6 mps 753 mmHg 13%
    15:00 +42°C° 0 mm 6 mps 753 mmHg 15%
    16:00 +41°C° 0 mm 7 mps 753 mmHg 16%
    17:00 +40°C° 0 mm 7 mps 753 mmHg 18%
    18:00 +36°C° 0 mm 6 mps 753 mmHg 25%
    19:00 +34°C° 0 mm 4 mps 754 mmHg 33%
    20:00 +31°C° 0 mm 3 mps 754 mmHg 40%
    21:00 +30°C° 0 mm 3 mps 754 mmHg 40%
    22:00 +29°C° 0 mm 3 mps 754 mmHg 40%
    23:00 +28°C° 0 mm 3 mps 754 mmHg 41%

    21 January, Sunday

    Time Temperature Precipitation Wind Pressure Humidity
    00:00 +28°C° 0 mm 2 mps 754 mmHg 43%
    01:00 +27°C° 0 mm 2 mps 754 mmHg 46%
    02:00 +26°C° 0 mm 1 mps 754 mmHg 48%
    03:00 +26°C° 0.1 mm 1 mps 754 mmHg 52%
    04:00 +26°C° 0.1 mm 1 mps 754 mmHg 55%
    05:00 +25°C° 0.1 mm 2 mps 754 mmHg 59%
    06:00 +25°C° 0.1 mm 2 mps 754 mmHg 61%
    07:00 +25°C° 0.1 mm 2 mps 755 mmHg 63%
    08:00 +25°C° 0.1 mm 2 mps 755 mmHg 65%
    09:00 +26°C° 0.1 mm 2 mps 755 mmHg 62%
    10:00 +27°C° 0.1 mm 3 mps 755 mmHg 60%
    11:00 +27°C° 0.1 mm 3 mps 755 mmHg 57%
    12:00 +27°C° 0.3 mm 3 mps 754 mmHg 59%
    13:00 +27°C° 0.3 mm 2 mps 754 mmHg 62%
    14:00 +26°C° 0.3 mm 2 mps 753 mmHg 64%
    15:00 +27°C° 0.2 mm 3 mps 753 mmHg 61%
    16:00 +28°C° 0.2 mm 3 mps 753 mmHg 58%
    17:00 +29°C° 0.2 mm 3 mps 753 mmHg 55%
    18:00 +28°C° 0 mm 3 mps 752 mmHg 58%
    19:00 +27°C° 0 mm 3 mps 752 mmHg 61%
    20:00 +26°C° 0 mm 2 mps 752 mmHg 64%
    21:00 +25°C° 0 mm 2 mps 752 mmHg 66%
    22:00 +25°C° 0 mm 2 mps 752 mmHg 69%
    23:00 +24°C° 0 mm 1 mps 752 mmHg 71%

    22 January, Monday

    Time Temperature Precipitation Wind Pressure Humidity
    00:00 +24°C° 0 mm 1 mps 752 mmHg 74%
    01:00 +24°C° 0 mm 1 mps 752 mmHg 78%
    02:00 +24°C° 0 mm 1 mps 752 mmHg 81%
    03:00 +21°C° 0 mm 0 mps 752 mmHg 84%
    04:00 +21°C° 0 mm 0 mps 752 mmHg 86%
    05:00 +21°C° 0 mm 0 mps 752 mmHg 89%
    06:00 +23°C° 0 mm 0 mps 752 mmHg 80%
    07:00 +25°C° 0 mm 0 mps 752 mmHg 71%
    08:00 +27°C° 0 mm 0 mps 752 mmHg 62%
    09:00 +30°C° 0 mm 0 mps 752 mmHg 54%
    10:00 +32°C° 0 mm 0 mps 751 mmHg 47%
    11:00 +35°C° 0 mm 0 mps 751 mmHg 40%
    12:00 +35°C° 0 mm 0 mps 751 mmHg 38%
    13:00 +36°C° 0 mm 0 mps 750 mmHg 36%
    14:00 +40°C° 0 mm 1 mps 749 mmHg 34%
    15:00 +40°C° 0 mm 1 mps 749 mmHg 32%
    16:00 +40°C° 0 mm 1 mps 748 mmHg 31%
    17:00 +40°C° 0 mm 1 mps 748 mmHg 29%
    18:00 +37°C° 0 mm 1 mps 748 mmHg 33%
    19:00 +35°C° 0 mm 1 mps 749 mmHg 38%
    20:00 +34°C° 0 mm 2 mps 749 mmHg 42%
    21:00 +32°C° 0 mm 2 mps 749 mmHg 45%
    22:00 +31°C° 0 mm 2 mps 749 mmHg 49%
    23:00 +30°C° 0 mm 2 mps 750 mmHg 52%
    Show more